Location: Days
(41.3591°N, 106.7339°W)
Time: 11:36:20
(UTC+00:00)

Tiros 1 - All Passes

Search period start: 28 May 2022 00:00
Search period end: 07 June 2022 00:00
Orbit: 629 x 663 km, 48.4° (Epoch: 27 May)

Date Brightness Start Highest point End Pass type
(mag) Time Alt. Az. Time Alt. Az. Time Alt. Az.
28 May - 06:28:57 10° SW 06:33:21 46° SE 06:37:48 10° ENE visible
28 May - 08:11:02 10° W 08:15:33 51° NNW 08:20:06 10° ENE visible
28 May - 09:54:08 10° WNW 09:58:23 34° N 10:02:40 10° ENE visible
28 May - 11:36:36 10° WNW 11:41:12 55° NNE 11:45:50 10° E daylight
28 May - 13:18:54 10° WNW 13:23:20 41° SW 13:27:46 10° SSE daylight
29 May - 05:13:58 10° S 05:17:19 20° SE 05:20:40 10° E visible
29 May - 06:54:24 10° WSW 06:59:01 89° NW 07:03:41 10° ENE visible
29 May - 08:37:15 10° WNW 08:41:34 37° N 08:45:56 10° ENE visible
29 May - 10:20:08 10° WNW 10:24:30 38° N 10:28:54 10° E visible
29 May - 12:02:20 10° WNW 12:07:02 88° SSW 12:11:46 10° ESE daylight
29 May - 13:45:23 10° W 13:48:45 19° SW 13:52:07 10° S daylight
30 May - 05:38:23 10° SSW 05:42:44 42° SE 05:47:06 10° ENE visible
30 May - 07:20:21 10° W 07:24:52 53° NNW 07:29:26 10° ENE visible
30 May - 09:03:27 10° WNW 09:07:41 34° N 09:11:57 10° ENE visible
30 May - 10:45:57 10° WNW 10:50:31 53° NNE 10:55:07 10° E visible
30 May - 12:28:13 10° WNW 12:32:41 45° SW 12:37:10 10° SE daylight
31 May - 04:23:35 10° S 04:26:42 18° SE 04:29:51 10° E visible
31 May - 06:03:45 10° WSW 06:08:22 85° SSE 06:13:01 10° ENE visible
31 May - 07:46:33 10° W 07:50:53 38° N 07:55:15 10° ENE visible
31 May - 09:29:28 10° WNW 09:33:48 37° N 09:38:10 10° ENE visible
31 May - 11:11:41 10° WNW 11:16:23 87° NNE 11:21:06 10° ESE daylight
31 May - 12:54:36 10° W 12:58:08 21° SW 13:01:40 10° S daylight
01 Jun - 04:47:50 10° SSW 04:52:07 39° SE 04:56:25 10° ENE visible
01 Jun - 06:29:39 10° W 06:34:12 56° NNW 06:38:46 10° ENE visible
01 Jun - 08:12:45 10° WNW 08:16:59 34° N 08:21:15 10° ENE visible
01 Jun - 09:55:18 10° WNW 09:59:50 50° NNE 10:04:24 10° E visible
01 Jun - 11:37:32 10° WNW 11:42:03 49° SW 11:46:34 10° SE daylight
02 Jun - 03:33:14 10° S 03:36:07 16° SE 03:39:00 10° E visible
02 Jun - 05:13:07 10° SW 05:17:43 79° SSE 05:22:21 10° ENE visible
02 Jun - 06:55:50 10° W 07:00:11 39° NNW 07:04:34 10° ENE visible
02 Jun - 08:38:48 10° WNW 08:43:06 36° N 08:47:26 10° ENE visible
02 Jun - 10:21:02 10° WNW 10:25:43 82° NNE 10:30:24 10° ESE visible
02 Jun - 12:03:49 10° W 12:07:31 23° SW 12:11:12 10° S daylight
03 Jun - 03:57:17 10° SSW 04:01:29 36° SE 04:05:42 10° ENE visible
03 Jun - 05:38:58 10° WSW 05:43:31 59° NNW 05:48:06 10° ENE visible
03 Jun - 07:22:03 10° WNW 07:26:17 34° N 07:30:32 10° ENE visible
03 Jun - 09:04:39 10° WNW 09:09:09 48° NNE 09:13:40 10° E visible
03 Jun - 10:46:52 10° WNW 10:51:24 53° SW 10:55:57 10° SE visible
04 Jun - 02:42:55 10° SSE 02:45:30 15° SE 02:48:06 10° E daylight
04 Jun - 04:22:28 10° SW 04:27:03 74° SSE 04:31:41 10° ENE visible
04 Jun - 06:05:07 10° W 06:09:29 40° NNW 06:13:53 10° ENE visible
04 Jun - 07:48:07 10° WNW 07:52:24 36° N 07:56:41 10° ENE visible
04 Jun - 09:30:23 10° WNW 09:35:02 76° NNE 09:39:43 10° ESE visible
04 Jun - 11:13:04 10° W 11:16:53 25° SW 11:20:43 10° SSE daylight
05 Jun - 03:06:45 10° SSW 03:10:52 33° SE 03:14:59 10° ENE visible
05 Jun - 04:48:16 10° WSW 04:52:50 63° NNW 04:57:27 10° ENE visible
05 Jun - 06:31:21 10° WNW 06:35:34 34° N 06:39:49 10° ENE visible
05 Jun - 08:13:59 10° WNW 08:18:27 46° NNE 08:22:56 10° E visible
05 Jun - 09:56:11 10° WNW 10:00:45 57° SW 10:05:20 10° SE visible
05 Jun - 11:40:57 10° WSW 11:42:11 11° SW 11:43:24 10° SW daylight
06 Jun - 01:52:40 10° SSE 01:54:55 13° SE 01:57:08 10° ESE daylight
06 Jun - 03:31:50 10° SW 03:36:24 68° SSE 03:41:00 10° ENE visible
06 Jun - 05:14:24 10° W 05:18:48 42° NNW 05:23:12 10° ENE visible
06 Jun - 06:57:26 10° WNW 07:01:42 35° N 07:05:58 10° ENE visible
06 Jun - 08:39:44 10° WNW 08:44:22 72° NNE 08:49:01 10° ESE visible
06 Jun - 10:22:19 10° W 10:26:16 27° SW 10:30:13 10° SSE visible
